Location: Creston
(40.9870°N, 81.8938°W)
Time: 17:53:31
(UTC+00:00)

Helios 1A Rocket - Pass Details

Date: 29 October 2020
Orbit: 562 x 587 km, 98.3° (Epoch: 28 November)

Event Time Altitude Azimuth Distance (km) Brightness Sun altitude
Rises 23:35:57 0° 155° (SSE) 2,793 6.2 -13.6°
Reaches altitude 10° 23:38:07 10° 151° (SSE) 1,895 5.3 -14.1°
Maximum altitude 23:42:09 56° 73° (ENE) 695 2.9 -14.8°
Drops below altitude 10° 23:46:10 10° 356° (N) 1,896 5.5 -15.6°
Sets 23:48:20 0° 352° (N) 2,795 6.5 -16.0°
